FW6654 Weather Reports


Display with metric or nautical units.
time (UTC)temp
F
wind
direction
speed
MPH
gust
MPH
rain 1hr
in
rain 24hr
in
rain mn
in
humidity
%
barometer
mb
20260504222223 62 292 0.0 1.0 0.00 0.00 0.00 54 1007.2
20260504221900 62 249 2.0 4.0 0.00 0.00 0.00 51 1005.1
20260504221356 62 315 2.0 12.0 0.00 0.00 0.00 49 1005.0
20260504221321 62 318 1.0 5.0 0.00 0.00 0.00 54 1007.1
20260504220854 63 243 3.0 4.0 0.00 0.00 0.00 49 1005.0
20260504220350 63 281 3.0 7.0 0.00 0.00 0.00 48 1005.2
20260504215847 63 272 2.0 3.0 0.00 0.00 0.00 51 1005.0
20260504215344 62 335 0.0 5.0 0.00 0.00 0.00 50 1005.0
20260504215324 62 294 1.0 4.0 0.00 0.00 0.00 54 1007.2
20260504214840 62 267 2.0 4.0 0.00 0.00 0.00 50 1005.1
20260504214337 62 236 2.0 4.0 0.00 0.00 0.00 50 1005.1
20260504214321 62 302 3.0 9.0 0.00 0.00 0.00 54 1007.2
20260504213833 62 280 1.0 4.0 0.00 0.00 0.00 50 1005.0
20260504213329 62 295 5.0 5.0 0.00 0.00 0.00 49 1005.1
20260504212827 64 345 4.0 9.0 0.00 0.00 0.00 48 1005.0
20260504212323 64 241 7.0 11.0 0.00 0.00 0.00 47 1004.9
20260504211821 64 245 7.0 8.0 0.00 0.00 0.00 47 1004.8
20260504211316 64 305 3.0 7.0 0.00 0.00 0.00 48 1004.6
20260504210814 65 225 6.0 6.0 0.00 0.00 0.00 45 1004.7
20260504210521 62 325 4.0 8.0 0.00 0.00 0.00 55 1006.8
20260504210422 62 321 3.0 6.0 0.00 0.00 0.00 55 1006.6
20260504210311 64 306 3.0 16.0 0.00 0.00 0.00 48 1004.6
20260504205809 63 257 2.0 13.0 0.00 0.00 0.00 47 1004.8
20260504205521 62 257 2.0 7.0 0.00 0.00 0.00 54 1006.5
20260504205306 63 301 8.0 12.0 0.00 0.00 0.00 49 1004.7
20260504204804 63 335 2.0 10.0 0.00 0.00 0.00 50 1004.8
20260504204523 62 302 5.0 9.0 0.00 0.00 0.00 54 1006.5
20260504204302 63 336 4.0 6.0 0.00 0.00 0.00 50 1004.6
20260504203801 63 321 5.0 10.0 0.00 0.00 0.00 51 1004.7
20260504203524 63 264 2.0 4.0 0.00 0.00 0.00 54 1006.7
20260504203258 64 318 3.0 9.0 0.00 0.00 0.00 48 1004.6
20260504202758 63 296 4.0 10.0 0.00 0.00 0.00 50 1004.5
20260504202256 64 249 4.0 4.0 0.00 0.00 0.00 48 1004.6
20260504201753 62 340 2.0 9.0 0.00 0.00 0.00 51 1004.6
20260504201525 62 215 1.0 4.0 0.00 0.00 0.00 54 1006.8
20260504201250 61 273 8.0 12.0 0.00 0.00 0.00 52 1004.6
20260504200748 61 272 10.0 15.0 0.00 0.00 0.00 51 1004.6
20260504200622 63 302 4.0 10.0 0.00 0.00 0.00 55 1006.5
20260504200243 62 264 5.0 7.0 0.00 0.00 0.00 53 1004.4
20260504195740 63 254 6.0 12.0 0.00 0.00 0.00 49 1004.4
20260504195623 62 212 2.0 7.0 0.00 0.01 0.00 55 1006.5
20260504195236 63 232 7.0 14.0 0.00 0.00 0.00 49 1004.4
20260504194733 64 295 4.0 6.0 0.00 0.00 0.00 48 1004.4
20260504194722 64 315 3.0 7.0 0.00 0.01 0.00 55 1006.2
20260504194229 63 238 10.0 15.0 0.00 0.00 0.00 51 1004.4
20260504193726 62 229 4.0 14.0 0.00 0.00 0.00 51 1004.3
20260504193722 64 352 4.0 13.0 0.00 0.01 0.00 58 1006.4
20260504193223 62 301 9.0 13.0 0.00 0.00 0.00 52 1004.3
20260504192722 62 267 4.0 11.0 0.00 0.01 0.00 59 1006.5
20260504192219 61 259 8.0 9.0 0.00 0.00 0.00 56 1004.4
20260504191723 61 198 2.0 4.0 0.00 0.01 0.00 58 1006.3
20260504191718 61 256 6.0 18.0 0.00 0.00 0.00 55 1004.5
20260504191214 61 288 6.0 21.0 0.00 0.00 0.00 57 1004.3
20260504190723 60 317 3.0 6.0 0.00 0.01 0.00 62 1006.3
20260504190709 62 278 6.0 10.0 0.00 0.00 0.00 57 1004.5
20260504190206 61 272 5.0 13.0 0.00 0.00 0.00 57 1004.5
20260504185821 59 322 2.0 5.0 0.00 0.02 0.00 66 1006.6
20260504185703 61 220 8.0 11.0 0.00 0.00 0.00 57 1004.7
20260504185159 60 244 7.0 12.0 0.00 0.00 0.00 59 1004.7
20260504184655 58 53 2.0 7.0 0.00 0.00 0.00 64 1004.9
20260504184150 57 263 7.0 11.0 0.00 0.00 0.00 63 1005.0
20260504183921 58 259 0.0 3.0 0.00 0.04 0.00 65 1007.2
20260504183647 57 225 3.0 9.0 0.00 0.00 0.00 64 1004.8
20260504183145 58 262 6.0 13.0 0.00 0.00 0.00 63 1004.9
20260504182643 57 257 3.0 9.0 0.00 0.00 0.00 65 1005.0
20260504182140 56 279 5.0 9.0 0.00 0.00 0.00 67 1004.9
20260504181922 57 252 1.0 4.0 0.00 0.06 0.00 66 1007.2
20260504181637 57 259 7.0 8.0 0.00 0.00 0.00 67 1005.1
20260504181135 56 241 5.0 10.0 0.00 0.00 0.00 67 1005.2
20260504180922 57 349 2.0 5.0 0.00 0.07 0.00 66 1007.3
20260504180634 56 221 7.0 11.0 0.00 0.00 0.00 67 1005.1
20260504180132 56 286 7.0 8.0 0.00 0.00 0.00 65 1005.3
20260504175629 56 265 4.0 10.0 0.00 0.00 0.00 67 1005.2
20260504175125 56 298 8.0 13.0 0.00 0.00 0.00 65 1005.3
20260504174923 56 313 1.0 7.0 0.00 0.08 0.00 68 1007.4
20260504174624 56 226 2.0 6.0 0.00 0.00 0.00 66 1005.5
20260504174120 56 243 5.0 8.0 0.00 0.00 0.00 67 1005.3
20260504173922 56 299 1.0 4.0 0.00 0.09 0.00 67 1007.5
20260504173617 55 214 9.0 10.0 0.00 0.00 0.00 66 1005.4
20260504173115 56 253 6.0 7.0 0.00 0.00 0.00 67 1005.5
20260504172611 55 275 3.0 7.0 0.00 0.00 0.00 68 1005.6
20260504172108 55 223 4.0 14.0 0.00 0.00 0.00 67 1005.3
20260504172022 56 314 2.0 6.0 0.00 0.10 0.00 63 1007.4
20260504171604 55 273 4.0 11.0 0.00 0.00 0.00 65 1005.4
20260504171101 56 254 9.0 10.0 0.00 0.00 0.00 62 1005.3
20260504171024 57 292 1.0 3.0 0.00 0.11 0.00 60 1007.2
20260504170557 57 294 4.0 7.0 0.00 0.00 0.00 59 1005.1
20260504170122 57 159 2.0 4.0 0.00 0.11 0.00 58 1007.2
20260504151025 58 188 2.0 4.0 0.00 0.22 0.00 54 1007.2
20260504150941 57 230 3.0 5.0 0.00 0.00 0.00 49 1005.2
20260504150437 57 297 6.0 6.0 0.00 0.00 0.00 50 1005.2
20260504141123 58 250 2.0 4.0 0.00 0.26 0.00 53 1008.2
20260504140904 55 133 8.0 9.0 0.00 0.00 0.00 48 1006.2
20260504140400 54 239 6.0 6.0 0.00 0.00 0.00 49 1006.2
20260504130430 56 186 3.0 6.0 0.00 0.30 0.00 52 1008.9
20260504130325 53 290 2.0 8.0 0.00 0.00 0.00 48 1006.7
20260504120248 47 131 0.0 6.0 0.00 0.00 0.00 57 1007.1
20260504110716 41 291 0.0 2.0 0.00 0.00 0.00 70 1007.1
20260504110521 43 292 0.0 0.0 0.00 0.44 0.00 81 1008.9
20260504110423 43 292 0.0 1.0 0.00 0.44 0.00 81 1008.9
20260504110212 41 269 2.0 5.0 0.00 0.00 0.00 69 1007.2
20260504100523 36 290 0.0 0.0 0.00 0.52 0.00 90 1008.2
20260504100130 37 149 2.0 2.0 0.00 0.00 0.00 81 1006.6
20260504081723 36 169 0.0 2.0 0.00 0.56 0.00 90 1007.5
20260504081523 35 134 2.0 2.0 0.00 0.00 0.00 85 1006.2
20260504081019 35 109 2.0 2.0 0.00 0.00 0.00 84 1006.3
20260504080722 36 247 0.0 0.0 0.00 0.56 0.00 91 1007.9
20260504080515 36 119 2.0 2.0 0.00 0.00 0.00 83 1006.5
20260504050334 37 193 2.0 3.0 0.00 0.00 0.00 79 1005.6
20260504050022 39 267 0.0 0.0 0.00 0.57 0.00 80 1007.2
20260504045832 36 132 0.0 1.0 0.00 0.00 0.00 84 1005.7
20260504045331 37 113 0.0 2.0 0.00 0.00 0.00 81 1005.6
20260504045024 39 247 0.0 0.0 0.00 0.57 0.00 79 1007.2
20260504044829 37 97 1.0 2.0 0.00 0.00 0.00 79 1005.7
20260504044326 37 115 1.0 2.0 0.00 0.00 0.00 79 1005.7
20260504044021 40 270 0.0 0.0 0.00 0.57 0.00 79 1007.2
20260504043824 38 114 1.0 2.0 0.00 0.00 0.00 76 1005.8
20260504043320 39 120 2.0 2.0 0.00 0.00 0.00 76 1006.0
20260504042818 39 109 2.0 2.0 0.00 0.00 0.00 80 1005.8
20260504042314 39 129 1.0 2.0 0.00 0.00 0.00 77 1005.7
20260504042122 41 332 0.0 0.0 0.00 0.57 0.00 75 1007.2
20260504041810 39 103 0.0 2.0 0.00 0.00 0.00 75 1005.6
20260504041306 40 218 0.0 2.0 0.00 0.00 0.00 69 1005.8
20260504041123 41 292 0.0 1.0 0.00 0.57 0.00 75 1007.2
20260504040803 40 279 0.0 2.0 0.00 0.00 0.00 68 1005.6
20260504040300 39 235 0.0 2.0 0.00 0.00 0.00 70 1005.6
20260504040121 41 230 0.0 0.0 0.00 0.57 0.00 77 1007.2
20260504040033 40 292 0.0 0.0 0.00 0.57 0.00 77 1007.0
20260504035756 39 298 2.0 3.0 0.00 0.57 0.57 71 1005.5
20260504035253 40 269 0.0 1.0 0.00 0.57 0.57 68 1005.4
20260504034751 41 139 0.0 3.0 0.00 0.57 0.57 66 1005.3
20260504034248 41 269 0.0 1.0 0.00 0.57 0.57 66 1005.5
20260504034028 39 205 0.0 2.0 0.00 0.57 0.57 79 1006.8
20260504033745 41 256 1.0 4.0 0.00 0.57 0.57 66 1005.4
20260504033243 41 196 1.0 2.0 0.00 0.57 0.57 65 1005.1
20260504033027 40 180 0.0 0.0 0.00 0.57 0.57 78 1006.7
20260504032740 41 269 2.0 3.0 0.00 0.57 0.57 66 1005.3
20260504032237 40 277 2.0 4.0 0.00 0.57 0.57 67 1005.0
20260504032125 41 292 0.0 2.0 0.00 0.57 0.57 78 1006.5
20260504031733 39 214 0.0 4.0 0.00 0.57 0.57 74 1005.0
20260504031231 39 114 2.0 2.0 0.00 0.57 0.57 77 1005.1
20260504031126 41 202 0.0 1.0 0.00 0.57 0.57 75 1006.5
20260504030726 40 144 0.0 2.0 0.00 0.57 0.57 77 1004.9
20260504030224 41 256 5.0 5.0 0.00 0.57 0.57 66 1004.8
20260504030126 41 270 0.0 0.0 0.00 0.57 0.57 73 1006.5
20260504025720 42 267 0.0 4.0 0.00 0.57 0.57 64 1004.9
20260504025225 42 292 0.0 0.0 0.00 0.57 0.57 74 1006.5
20260504025217 41 231 1.0 2.0 0.00 0.57 0.57 65 1004.9
20260504024714 41 321 0.0 2.0 0.00 0.57 0.57 65 1005.0
20260504024226 42 292 1.0 2.0 0.00 0.57 0.57 72 1006.5
20260504024211 41 350 1.0 1.0 0.00 0.57 0.57 64 1004.9
20260504023708 42 337 1.0 2.0 0.00 0.57 0.57 63 1004.9
20260504023227 43 292 0.0 0.0 0.00 0.57 0.57 71 1006.5
20260504023203 42 320 0.0 2.0 0.00 0.57 0.57 64 1004.8
20260504022700 42 31 1.0 2.0 0.00 0.57 0.57 64 1004.9
20260504022228 43 292 0.0 0.0 0.00 0.57 0.57 70 1006.5
20260504022156 42 321 0.0 2.0 0.00 0.57 0.57 64 1004.9
20260504021654 41 238 1.0 1.0 0.00 0.57 0.57 68 1004.8
20260504021227 43 293 0.0 2.0 0.00 0.57 0.57 70 1006.2
20260504021150 40 157 0.0 1.0 0.00 0.57 0.57 71 1004.7
20260504020647 40 46 2.0 2.0 0.00 0.57 0.57 72 1004.9
20260504020227 43 308 0.0 3.0 0.00 0.57 0.57 66 1006.2
20260504020143 40 68 0.0 2.0 0.00 0.57 0.57 73 1004.6
20260504015640 40 57 1.0 2.0 0.00 0.57 0.57 71 1004.6
20260504015325 44 294 0.0 3.0 0.00 0.57 0.57 66 1006.4
20260504015137 41 113 0.0 1.0 0.00 0.57 0.57 69 1004.7
20260504014632 41 44 0.0 0.0 0.00 0.57 0.57 67 1004.6
20260504014327 44 247 0.0 1.0 0.00 0.57 0.57 67 1006.3
20260504014130 41 46 0.0 0.0 0.00 0.57 0.57 67 1004.7
20260504013627 41 54 0.0 2.0 0.00 0.57 0.57 69 1004.8
20260504013425 45 277 1.0 3.0 0.00 0.57 0.57 66 1006.2
20260504013124 42 28 0.0 1.0 0.00 0.57 0.57 66 1004.7
20260504012621 42 0 0.0 2.0 0.00 0.57 0.57 66 1004.5
20260504012120 42 61 1.0 2.0 0.00 0.57 0.57 68 1004.5
20260504011616 43 14 0.0 2.0 0.00 0.57 0.57 64 1004.5
20260504011425 45 303 3.0 5.0 0.00 0.57 0.57 68 1006.2
20260504011112 43 332 0.0 2.0 0.00 0.57 0.57 64 1004.5
20260504010608 43 334 0.0 3.0 0.00 0.57 0.57 62 1004.2
20260504010525 45 255 1.0 4.0 0.00 0.57 0.57 67 1006.0
20260504010104 43 358 2.0 2.0 0.00 0.57 0.57 64 1004.3
20260504005601 42 325 2.0 2.0 0.00 0.57 0.57 66 1004.1
20260504005527 46 324 1.0 5.0 0.00 0.57 0.57 65 1005.8
20260504005058 43 51 2.0 2.0 0.00 0.57 0.57 64 1004.0
20260504004556 44 22 0.0 2.0 0.00 0.57 0.57 62 1004.1
20260504004526 46 203 0.0 3.0 0.00 0.57 0.57 65 1005.8
20260504004053 44 42 2.0 2.0 0.00 0.57 0.57 61 1004.0
20260504003548 44 269 0.0 3.0 0.00 0.57 0.57 61 1003.7
20260504003527 47 253 0.0 2.0 0.00 0.57 0.57 65 1005.5
20260504003046 44 314 1.0 3.0 0.00 0.57 0.57 62 1003.8
20260504002542 44 338 0.0 2.0 0.00 0.57 0.57 62 1003.7
20260504002527 47 295 0.0 3.0 0.00 0.57 0.57 65 1005.5
20260504002040 45 322 0.0 2.0 0.00 0.57 0.57 62 1003.6
20260504001538 45 15 0.0 2.0 0.00 0.57 0.57 60 1003.5
20260504001531 48 271 1.0 3.0 0.00 0.57 0.57 64 1005.2
20260504001034 46 12 0.0 3.0 0.00 0.57 0.57 58 1003.5
20260504000626 48 319 4.0 10.0 0.00 0.57 0.57 66 1005.0
20260504000531 46 19 2.0 4.0 0.00 0.57 0.57 57 1003.3
20260504000028 46 356 3.0 5.0 0.00 0.57 0.57 55 1003.1
20260503235626 49 292 0.0 1.0 0.00 0.57 0.57 67 1004.8
20260503235527 47 346 3.0 5.0 0.00 0.57 0.57 55 1003.2
20260503235023 47 344 3.0 5.0 0.00 0.57 0.57 58 1002.8
20260503234724 49 340 1.0 3.0 0.00 0.57 0.57 70 1004.8
20260503234521 47 323 4.0 4.0 0.00 0.57 0.57 58 1002.8
20260503234019 47 338 2.0 4.0 0.00 0.57 0.57 60 1002.8
20260503233515 47 323 3.0 4.0 0.00 0.57 0.57 60 1002.8
20260503233011 47 302 2.0 4.0 0.00 0.57 0.57 62 1002.8
20260503232726 49 241 0.0 2.0 0.00 0.57 0.57 86 1004.5
20260503232508 47 31 0.0 3.0 0.00 0.57 0.57 62 1002.7
20260503232006 47 350 1.0 4.0 0.00 0.57 0.57 64 1002.5
20260503231504 47 2 2.0 3.0 0.00 0.57 0.57 72 1002.4
20260503231000 48 349 1.0 2.0 0.00 0.57 0.57 77 1002.3
20260503230827 50 247 0.0 0.0 0.00 0.57 0.57 88 1004.1
20260503230456 47 13 2.0 2.0 0.00 0.57 0.57 80 1002.2
20260503225954 47 302 3.0 5.0 0.00 0.57 0.57 85 1002.2
20260503225926 50 247 0.0 0.0 0.00 0.57 0.57 87 1004.1
20260503225829 50 247 0.0 0.0 0.00 0.57 0.57 87 1004.1
20260503225450 47 42 2.0 2.0 0.00 0.57 0.57 85 1002.2
20260503224946 48 48 1.0 2.0 0.00 0.57 0.57 86 1002.2
20260503224443 48 22 0.0 0.0 0.00 0.57 0.57 85 1001.9
20260503223941 48 311 0.0 0.0 0.00 0.57 0.57 85 1001.9
20260503223926 52 22 0.0 0.0 0.00 0.57 0.57 85 1004.1
20260503223439 48 17 0.0 1.0 0.00 0.57 0.57 83 1002.1
20260503222934 48 31 1.0 2.0 0.00 0.57 0.57 82 1001.8
20260503222925 52 22 0.0 0.0 0.00 0.57 0.57 84 1003.8
20260503222433 48 39 2.0 3.0 0.00 0.57 0.57 83 1001.9